Location: Gajan
(43.0218°N, 1.1244°E)
Time: 03:17:29
(UTC+00:00)

Meteor 2-15 Rocket - Pass Details

Date: 22 April 2021
Orbit: 939 x 956 km, 82.5° (Epoch: 15 May)

Event Time Altitude Azimuth Distance (km) Brightness Sun altitude
Exits shadow 21:43:55 70° 178° (S) 997 4.3 -27.0°
Maximum altitude 21:44:41 87° 97° (E) 948 4.3 -27.1°
Drops below altitude 10° 21:50:47 10° 9° (N) 2,663 7.3 -27.7°
Sets 21:53:16 0° 9° (N) 3,612 8.1 -28.0°
